カタログに戻る

STARLINK-33842

運用中通信VLEO
NORAD 63782·PAYLOAD·🇺🇸 United States

打ち上げ May 2, 2025 から Cape Canaveral Space Force Station

Loading…

次のパス (今後24時間)

TLE

最新Source: CelesTrak SupGP

元期: Sep 14, 2026, 20:54 UTC

1 63782C 25091H   26257.87131944  .00017880  00000+0  64777-3 0  2576
2 63782  43.0037  64.1506 0002094 279.1250 124.2321 15.27561175    14

AllMySatでSTARLINK-33842をリアルタイム追跡

Download on the App Store